This demonstration page uses our WeatherBlox Daily Observations layout. Learn more.

Left ArrowRight Arrow

Hourly Observations for August 14, 2022

Temp ( °F °C ) Dew Point ( °F °C ) Humidity (%) Winds ( mph kmh ) Pressure ( in mb ) Visibility ( mi km ) Precip ( " mm )
12:15 am 00:15 Clear 64 18 59 15 83 83 Calm 30.09 1019 10 16 0.00 0.00
12:35 am 00:35 Clear 64 18 59 15 83 83 Calm 30.10 1019 10 16 0.00 0.00
12:55 am 00:55 Clear 64 18 59 15 83 83 Calm 30.09 1019 10 16 0.00 0.00
1:15 am 01:15 Clear 64 18 59 15 83 83 Calm 30.10 1019 10 16 0.00 0.00
1:35 am 01:35 Clear 64 18 59 15 83 83 Calm 30.09 1019 10 16 0.00 0.00
1:55 am 01:55 Clear 64 18 59 15 83 83 Calm 30.08 1019 10 16 0.00 0.00
2:15 am 02:15 Clear 64 18 59 15 83 83 Calm 30.08 1019 10 16 0.00 0.00
2:35 am 02:35 Clear 64 18 59 15 83 83 Calm 30.08 1019 10 16 0.00 0.00
2:55 am 02:55 Clear 64 18 59 15 83 83 WSW 3 6 30.08 1019 10 16 0.00 0.00
3:15 am 03:15 Clear 64 18 59 15 83 83 Calm 30.07 1018 10 16 0.00 0.00
3:35 am 03:35 Clear 64 18 61 16 88 88 SW 3 6 30.07 1018 10 16 0.00 0.00
3:55 am 03:55 Partly Cloudy 64 18 59 15 83 83 Calm 30.07 1018 10 16 0.00 0.00
4:15 am 04:15 Mostly Cloudy 64 18 59 15 83 83 Calm 30.07 1018 10 16 0.00 0.00
4:35 am 04:35 Clear 64 18 61 16 88 88 SSW 3 6 30.05 1018 10 16 0.00 0.00
4:55 am 04:55 Clear 66 19 59 15 78 78 Calm 30.05 1018 10 16 0.00 0.00
5:15 am 05:15 Partly Cloudy 64 18 61 16 88 88 Calm 30.07 1018 10 16 0.00 0.00
5:35 am 05:35 Partly Cloudy 63 17 59 15 88 88 N 5 7 30.08 1018 10 16 0.00 0.00
5:55 am 05:55 Clear 64 18 59 15 83 83 Calm 30.07 1018 10 16 0.00 0.00
6:15 am 06:15 Clear 64 18 59 15 83 83 NE 3 6 30.07 1018 10 16 0.00 0.00
6:35 am 06:35 Sunny 63 17 59 15 88 88 Calm 30.08 1018 10 16 0.00 0.00
6:55 am 06:55 Sunny 63 17 59 15 88 88 Calm 30.08 1018 10 16 0.00 0.00
7:15 am 07:15 Sunny 63 17 61 16 94 94 Calm 30.08 1018 10 16 0.00 0.00
7:35 am 07:35 Sunny 64 18 61 16 88 88 Calm 30.07 1018 10 16 0.00 0.00
7:55 am 07:55 Sunny 66 19 61 16 83 83 Calm 30.07 1018 10 16 0.00 0.00
8:15 am 08:15 Sunny 70 21 63 17 78 78 Calm 30.07 1018 10 16 0.00 0.00
8:35 am 08:35 Sunny 70 21 61 16 73 73 S 3 6 30.07 1018 10 16 0.00 0.00
8:55 am 08:55 Mostly Cloudy 70 21 61 16 73 73 SSW 3 6 30.07 1018 10 16 0.00 0.00
9:15 am 09:15 Mostly Cloudy 72 22 61 16 69 69 Calm 30.07 1018 10 16 0.00 0.00
9:35 am 09:35 Partly Cloudy 73 23 61 16 65 65 SSW 6 9 30.06 1018 10 16 0.00 0.00
9:55 am 09:55 Sunny 75 24 61 16 61 61 SSW 8 13 30.06 1018 10 16 0.00 0.00
10:15 am 10:15 Partly Cloudy 77 25 61 16 57 57 SSW 8 13 30.06 1018 10 16 0.00 0.00
10:35 am 10:35 Partly Cloudy 79 26 61 16 54 54 S 12 19 30.06 1018 10 16 0.00 0.00
10:55 am 10:55 Partly Cloudy 79 26 61 16 54 54 SSW 9 15 30.05 1018 10 16 0.00 0.00
11:15 am 11:15 Sunny 79 26 61 16 54 54 SW 8 13 30.05 1018 10 16 0.00 0.00
11:35 am 11:35 Partly Cloudy 81 27 55 13 42 42 S 13 20 30.04 1017 10 16 0.00 0.00
11:55 am 11:55 Partly Cloudy 81 27 59 15 48 48 S 10 17 30.04 1017 10 16 0.00 0.00
12:15 pm 12:15 Partly Cloudy 81 27 59 15 48 48 SW 8 13 30.04 1017 10 16 0.00 0.00
12:35 pm 12:35 Partly Cloudy 81 27 61 16 51 51 SSW 12 19 30.04 1017 10 16 0.00 0.00
12:55 pm 12:55 Partly Cloudy 82 28 59 15 45 45 S 9 15 30.03 1017 10 16 0.00 0.00
1:15 pm 13:15 Mostly Cloudy 82 28 57 14 42 42 S 10 17 30.03 1017 10 16 0.00 0.00
1:35 pm 13:35 Mostly Cloudy 81 27 57 14 45 45 S 10 17 30.03 1017 10 16 0.00 0.00
1:55 pm 13:55 Mostly Cloudy 81 27 61 16 51 51 S 9 15 30.02 1017 10 16 0.00 0.00
2:15 pm 14:15 Mostly Cloudy 81 27 61 16 51 51 SSW 9 15 30.02 1017 10 16 0.00 0.00
2:35 pm 14:35 Mostly Cloudy 81 27 61 16 51 51 SSW 10 17 30.02 1017 10 16 0.00 0.00
2:55 pm 14:55 Cloudy 81 27 61 16 51 51 S 7 11 30.01 1016 10 16 0.00 0.00
3:15 pm 15:15 Cloudy 79 26 59 15 51 51 SW 7 11 30.01 1016 10 16 0.00 0.00
3:35 pm 15:35 Cloudy 77 25 61 16 57 57 SSW 6 9 30.01 1016 10 16 0.00 0.00
3:55 pm 15:55 Cloudy 77 25 63 17 61 61 SW 7 11 30.01 1016 10 16 0.00 0.00
4:15 pm 16:15 Cloudy 77 25 63 17 61 61 S 6 9 30.01 1016 10 16 0.00 0.00
4:35 pm 16:35 Cloudy 77 25 63 17 61 61 S 5 7 30.01 1016 10 16 0.00 0.00
4:55 pm 16:55 Cloudy with Light Rain 75 24 64 18 69 69 WSW 6 9 30.02 1016 10 16 0.00 0.00
5:15 pm 17:15 Cloudy with Light Rain 73 23 64 18 73 73 SW 7 11 30.03 1017 10 16 0.00 0.00
5:35 pm 17:35 Cloudy with Light Rain 72 22 64 18 78 78 SW 3 6 30.03 1017 10 16 0.00 0.00
5:55 pm 17:55 Cloudy with Light Rain 72 22 66 19 83 83 W 5 7 30.03 1017 10 16 0.00 0.00
6:15 pm 18:15 Cloudy with Rain 70 21 68 20 94 94 W 3 6 30.04 1017 10 16 0.01 0.25
6:35 pm 18:35 Cloudy with Light Rain 70 21 68 20 94 94 S 5 7 30.03 1017 10 16 0.02 0.51
6:55 pm 18:55 Cloudy with Drizzle 68 20 66 19 94 94 SW 3 6 30.03 1017 10 16 0.02 0.51
7:15 pm 19:15 Cloudy with Drizzle 68 20 64 18 88 88 Calm 30.02 1017 10 16 0.00 0.00
7:35 pm 19:35 Cloudy with Light Rain 68 20 64 18 88 88 Calm 30.02 1017 10 16 0.00 0.00
7:55 pm 19:55 Cloudy 68 20 66 19 94 94 W 5 7 30.03 1017 10 16 0.00 0.00
8:15 pm 20:15 Cloudy 68 20 66 19 94 94 Calm 30.02 1017 10 16 0.01 0.25
8:35 pm 20:35 Cloudy with Rain 68 20 68 20 100 100 SSW 3 6 30.02 1017 10 16 0.01 0.25
8:55 pm 20:55 Cloudy with Drizzle 68 20 66 19 94 94 Calm 30.02 1017 10 16 0.01 0.25
9:15 pm 21:15 Cloudy with Light Rain 68 20 66 19 94 94 Calm 30.03 1017 10 16 0.01 0.25
9:35 pm 21:35 Cloudy with Light Rain 68 20 66 19 94 94 Calm 30.03 1017 10 16 0.02 0.51
9:55 pm 21:55 Cloudy with Light Rain 68 20 66 19 94 94 NNW 3 6 30.04 1017 10 16 0.02 0.51
10:15 pm 22:15 Cloudy with Rain 68 20 68 20 100 100 Calm 30.04 1017 10 16 0.01 0.25
10:35 pm 22:35 Cloudy with Light Rain 66 19 66 19 100 100 Calm 30.04 1017 10 16 0.02 0.51
10:55 pm 22:55 Cloudy with Light Rain 66 19 66 19 100 100 Calm 30.04 1017 10 16 0.03 0.76
11:15 pm 23:15 Cloudy with Drizzle 66 19 64 18 94 94 Calm 30.04 1017 10 16 0.00 0.00
11:35 pm 23:35 Cloudy with Rain 66 19 66 19 100 100 Calm 30.04 1017 10 16 0.00 0.00
11:55 pm 23:55 Cloudy with Rain 66 19 66 19 100 100 Calm 30.04 1017 7 11 0.03 0.76

Powered by AerisWeather